Погода в Сан-Винченцо

Италия     43°06′01″N   10°32′21″E
темп.,
°C
ветер,
м/с
пор.,
м/с
влажн.,
%
обл.,
%
осадки,
мм/ч
давл.,
гПа
погр.,
м
7 марта, вс
вс701:00+9всв44610 0.0 1026205
04:00+9всв335322 0.0 1025204
07:00+8в335456 0.0 1024193
10:00+10вюв125416 0.0 1024235
13:00+11юв356846 0.0 1022395
16:00+12вюв4682100 0.6 1020458
19:00+12в5783100 0.8 1019470
22:00+12вюв668699 0.6 1018380
8 марта, пн
пн801:00+12в568799 1.3 1017375
04:00+12в4486100 0.4 1015319
07:00+12в3482100 0.4 1015268
10:00+13в4580100 0.1 1015520
13:00+13в3480100 1.1 1015591
16:00+13в4675100 0.1 1013666
19:00+12в4776100 0.1 1014490
22:00+11всв4674100 0.0 1014356
9 марта, вт
вт901:00+10св5775100 0.0 1014400
04:00+10ссв4674100 0.0 1013414
07:00+10ссв4575100 0.0 1013287
10:00+11ссв5569100 0.0 1014448
13:00+14с4563100 0.0 10141000
16:00+14с666399 0.1 10131157
19:00+12ссв566982 0.2 1014381
22:00+11ссв56713 0.0 1015249
10 марта, ср
ср1001:00+11ссв811642 0.0 1016465
04:00+10св812560 0.0 1016521
07:00+10ссв711570 0.0 1018512
10:00+12ссв78530 0.0 1020714
13:00+13ссз66510 0.0 1021536
16:00+12сз77660 0.0 1020302
19:00+13ссз66630 0.0 1021332
22:00+11ссв34630 0.0 1024247
11 марта, чт
чт1101:00+11св22570 0.0 1024124
04:00+11в22610 0.0 1024109
07:00+11вюв33640 0.0 1024153
10:00+11юв44650 0.0 1025232
13:00+12ююв566649 0.0 1024322
16:00+13ююв4573100 0.0 1023390
19:00+13ююв457095 0.0 1023412
22:00+12в567842 0.0 1023304